| time (UTC) | temp F | wind direction | speed MPH | gust MPH | rain 1hr in | rain 24hr in | rain mn in | humidity % | barometer mb |
| 20260510063503 | 53 | 296 | 0.0 | 1.0 | 0.00 | 0.00 | 0.00 | 45 | 1017.8 |
| 20260510063003 | 53 | 296 | 0.0 | 2.0 | 0.00 | 0.00 | 0.00 | 44 | 1017.8 |
| 20260510062503 | 53 | 296 | 0.0 | 3.0 | 0.00 | 0.00 | 0.00 | 44 | 1017.7 |
| 20260510062004 | 54 | 296 | 0.0 | 3.0 | 0.00 | 0.00 | 0.00 | 44 | 1017.8 |
| 20260510061503 | 54 | 296 | 1.0 | 3.0 | 0.00 | 0.00 | 0.00 | 43 | 1017.9 |
| 20260510061003 | 54 | 296 | 1.0 | 3.0 | 0.00 | 0.00 | 0.00 | 44 | 1017.7 |
| 20260510060503 | 54 | 296 | 0.0 | 3.0 | 0.00 | 0.00 | 0.00 | 44 | 1017.8 |
| 20260510060003 | 54 | 295 | 1.0 | 3.0 | 0.00 | 0.00 | 0.00 | 43 | 1017.6 |
| 20260510055503 | 55 | 294 | 1.0 | 3.0 | 0.00 | 0.00 | 0.00 | 43 | 1017.3 |
| 20260510055003 | 55 | 311 | 1.0 | 4.0 | 0.00 | 0.00 | 0.00 | 44 | 1017.1 |
| 20260510054503 | 55 | 4 | 1.0 | 4.0 | 0.00 | 0.00 | 0.00 | 43 | 1017.1 |
| 20260510054003 | 55 | 24 | 1.0 | 3.0 | 0.00 | 0.00 | 0.00 | 43 | 1016.9 |
| 20260510053503 | 55 | 23 | 0.0 | 2.0 | 0.00 | 0.00 | 0.00 | 42 | 1016.7 |
| 20260510053003 | 56 | 22 | 0.0 | 3.0 | 0.00 | 0.00 | 0.00 | 42 | 1016.5 |
| 20260510052503 | 56 | 22 | 0.0 | 3.0 | 0.00 | 0.00 | 0.00 | 42 | 1016.3 |
| 20260510052003 | 56 | 24 | 0.0 | 3.0 | 0.00 | 0.00 | 0.00 | 42 | 1016.4 |
| 20260510051503 | 56 | 25 | 1.0 | 3.0 | 0.00 | 0.00 | 0.00 | 41 | 1016.1 |
| 20260510051003 | 57 | 27 | 1.0 | 3.0 | 0.00 | 0.00 | 0.00 | 41 | 1015.9 |
| 20260510050714 | 57 | 31 | 1.0 | 4.0 | 0.00 | 0.00 | 0.00 | 41 | 1016.0 |
| 20260510050004 | 57 | 32 | 1.0 | 4.0 | 0.00 | 0.00 | 0.00 | 40 | 1016.0 |
| 20260510045503 | 58 | 29 | 1.0 | 5.0 | 0.00 | 0.00 | 0.00 | 39 | 1015.9 |
| 20260510045003 | 58 | 30 | 1.0 | 5.0 | 0.00 | 0.00 | 0.00 | 40 | 1015.8 |
| 20260510044503 | 58 | 341 | 1.0 | 8.0 | 0.00 | 0.00 | 0.00 | 40 | 1015.7 |
| 20260510044003 | 58 | 354 | 1.0 | 8.0 | 0.00 | 0.00 | 0.00 | 39 | 1015.7 |
| 20260510043503 | 59 | 33 | 1.0 | 6.0 | 0.00 | 0.00 | 0.00 | 38 | 1015.6 |
| 20260510043004 | 59 | 27 | 1.0 | 4.0 | 0.00 | 0.00 | 0.00 | 38 | 1015.5 |
| 20260510042503 | 59 | 31 | 2.0 | 6.0 | 0.00 | 0.00 | 0.00 | 37 | 1015.4 |
| 20260510042003 | 59 | 22 | 2.0 | 7.0 | 0.00 | 0.00 | 0.00 | 38 | 1015.3 |
| 20260510041505 | 60 | 26 | 2.0 | 7.0 | 0.00 | 0.00 | 0.00 | 36 | 1015.2 |
| 20260510041003 | 60 | 34 | 3.0 | 9.0 | 0.00 | 0.00 | 0.00 | 36 | 1015.1 |
| 20260510040503 | 60 | 46 | 2.0 | 9.0 | 0.00 | 0.00 | 0.00 | 36 | 1015.0 |
| 20260510040003 | 60 | 49 | 3.0 | 12.0 | 0.00 | 0.00 | 0.00 | 39 | 1014.9 |
| 20260510035503 | 60 | 39 | 3.0 | 12.0 | 0.00 | 0.00 | 0.00 | 36 | 1014.9 |
| 20260510035003 | 60 | 37 | 3.0 | 8.0 | 0.00 | 0.00 | 0.00 | 38 | 1014.7 |
| 20260510034503 | 61 | 38 | 3.0 | 8.0 | 0.00 | 0.00 | 0.00 | 37 | 1014.7 |
| 20260510034003 | 61 | 42 | 3.0 | 8.0 | 0.00 | 0.00 | 0.00 | 39 | 1014.6 |
| 20260510033713 | 61 | 46 | 2.0 | 8.0 | 0.00 | 0.00 | 0.00 | 38 | 1014.5 |
| 20260510033003 | 61 | 40 | 1.0 | 6.0 | 0.00 | 0.00 | 0.00 | 39 | 1014.4 |
| 20260510032503 | 61 | 37 | 1.0 | 4.0 | 0.00 | 0.00 | 0.00 | 39 | 1014.3 |
| 20260510032214 | 61 | 37 | 0.0 | 4.0 | 0.00 | 0.00 | 0.00 | 38 | 1014.3 |
| 20260510031504 | 62 | 10 | 1.0 | 4.0 | 0.00 | 0.00 | 0.00 | 37 | 1014.2 |
| 20260510031003 | 62 | 8 | 1.0 | 4.0 | 0.00 | 0.00 | 0.00 | 38 | 1014.1 |
| 20260510030713 | 62 | 14 | 1.0 | 4.0 | 0.00 | 0.00 | 0.00 | 38 | 1014.0 |
| 20260510030004 | 62 | 32 | 1.0 | 3.0 | 0.00 | 0.00 | 0.00 | 37 | 1013.8 |
| 20260510025503 | 62 | 33 | 1.0 | 3.0 | 0.00 | 0.00 | 0.00 | 37 | 1013.8 |
| 20260510025003 | 63 | 38 | 1.0 | 3.0 | 0.00 | 0.00 | 0.00 | 37 | 1013.6 |
| 20260510024713 | 63 | 41 | 1.0 | 3.0 | 0.00 | 0.00 | 0.00 | 36 | 1013.5 |
| 20260510024003 | 63 | 44 | 1.0 | 5.0 | 0.00 | 0.00 | 0.00 | 36 | 1013.3 |
| 20260510023503 | 64 | 38 | 1.0 | 5.0 | 0.00 | 0.00 | 0.00 | 35 | 1013.2 |
| 20260510023003 | 64 | 11 | 1.0 | 6.0 | 0.00 | 0.00 | 0.00 | 35 | 1013.2 |
| 20260510022503 | 64 | 2 | 2.0 | 6.0 | 0.00 | 0.00 | 0.00 | 34 | 1013.0 |
| 20260510022003 | 64 | 28 | 2.0 | 6.0 | 0.00 | 0.00 | 0.00 | 35 | 1013.0 |
| 20260510021503 | 65 | 41 | 2.0 | 6.0 | 0.00 | 0.00 | 0.00 | 36 | 1012.8 |
| 20260510021214 | 65 | 41 | 2.0 | 6.0 | 0.00 | 0.00 | 0.00 | 34 | 1012.9 |
| 20260510020503 | 65 | 44 | 3.0 | 9.0 | 0.00 | 0.00 | 0.00 | 34 | 1012.7 |
| 20260510020004 | 66 | 43 | 3.0 | 10.0 | 0.00 | 0.00 | 0.00 | 34 | 1012.6 |
| 20260510015503 | 66 | 39 | 2.0 | 10.0 | 0.00 | 0.00 | 0.00 | 34 | 1012.5 |
| 20260510015003 | 66 | 27 | 2.0 | 10.0 | 0.00 | 0.00 | 0.00 | 36 | 1012.4 |
| 20260510014503 | 66 | 26 | 2.0 | 10.0 | 0.00 | 0.00 | 0.00 | 35 | 1012.2 |
| 20260510014003 | 67 | 41 | 3.0 | 11.0 | 0.00 | 0.00 | 0.00 | 34 | 1012.2 |
| 20260510013503 | 67 | 42 | 4.0 | 11.0 | 0.00 | 0.00 | 0.00 | 34 | 1012.1 |
| 20260510013004 | 67 | 44 | 3.0 | 8.0 | 0.00 | 0.00 | 0.00 | 34 | 1011.9 |
| 20260510012713 | 68 | 45 | 4.0 | 9.0 | 0.00 | 0.00 | 0.00 | 35 | 1011.9 |
| 20260510012003 | 68 | 42 | 4.0 | 13.0 | 0.00 | 0.00 | 0.00 | 36 | 1011.7 |
| 20260510011503 | 68 | 41 | 4.0 | 13.0 | 0.00 | 0.00 | 0.00 | 37 | 1011.7 |
| 20260510011003 | 68 | 41 | 3.0 | 9.0 | 0.00 | 0.00 | 0.00 | 38 | 1011.6 |
| 20260510010712 | 68 | 40 | 3.0 | 9.0 | 0.00 | 0.00 | 0.00 | 38 | 1011.4 |
| 20260510010003 | 68 | 37 | 3.0 | 10.0 | 0.00 | 0.00 | 0.00 | 40 | 1011.4 |
| 20260510005503 | 68 | 40 | 3.0 | 10.0 | 0.00 | 0.00 | 0.00 | 39 | 1011.3 |
| 20260510005003 | 68 | 38 | 3.0 | 9.0 | 0.00 | 0.00 | 0.00 | 39 | 1011.3 |
| 20260510004503 | 68 | 21 | 3.0 | 9.0 | 0.00 | 0.00 | 0.00 | 39 | 1011.2 |
| 20260510004003 | 68 | 25 | 2.0 | 8.0 | 0.00 | 0.00 | 0.00 | 40 | 1011.1 |
| 20260510003503 | 69 | 42 | 2.0 | 5.0 | 0.00 | 0.00 | 0.00 | 41 | 1011.1 |
| 20260510003004 | 69 | 51 | 2.0 | 8.0 | 0.00 | 0.00 | 0.00 | 41 | 1011.0 |
| 20260510002503 | 69 | 49 | 4.0 | 10.0 | 0.00 | 0.00 | 0.00 | 43 | 1011.0 |
| 20260510002003 | 69 | 30 | 3.0 | 10.0 | 0.00 | 0.00 | 0.00 | 42 | 1010.9 |
| 20260510001503 | 69 | 1 | 2.0 | 5.0 | 0.00 | 0.00 | 0.00 | 43 | 1010.9 |
| 20260510001004 | 69 | 36 | 2.0 | 9.0 | 0.00 | 0.00 | 0.00 | 43 | 1010.9 |
| 20260510000503 | 69 | 47 | 2.0 | 9.0 | 0.00 | 0.00 | 0.00 | 42 | 1010.9 |
| 20260510000004 | 69 | 51 | 2.0 | 8.0 | 0.00 | 0.00 | 0.00 | 42 | 1011.0 |
| 20260509235503 | 69 | 61 | 2.0 | 5.0 | 0.00 | 0.00 | 0.00 | 42 | 1010.8 |
| 20260509235003 | 70 | 31 | 2.0 | 8.0 | 0.00 | 0.00 | 0.00 | 43 | 1010.9 |
| 20260509234503 | 70 | 24 | 3.0 | 8.0 | 0.00 | 0.00 | 0.00 | 44 | 1010.9 |
| 20260509234003 | 70 | 27 | 3.0 | 10.0 | 0.00 | 0.00 | 0.00 | 44 | 1010.9 |
| 20260509233503 | 70 | 5 | 2.0 | 10.0 | 0.00 | 0.00 | 0.00 | 43 | 1010.9 |
| 20260509233003 | 70 | 345 | 1.0 | 4.0 | 0.00 | 0.00 | 0.00 | 45 | 1010.9 |
| 20260509232503 | 69 | 338 | 2.0 | 9.0 | 0.00 | 0.00 | 0.00 | 44 | 1010.8 |
| 20260509232003 | 69 | 337 | 2.0 | 9.0 | 0.00 | 0.00 | 0.00 | 43 | 1010.7 |
| 20260509231714 | 69 | 334 | 2.0 | 7.0 | 0.00 | 0.00 | 0.00 | 45 | 1010.7 |
| 20260509231003 | 70 | 6 | 2.0 | 9.0 | 0.00 | 0.00 | 0.00 | 44 | 1010.8 |
| 20260509230504 | 70 | 35 | 2.0 | 9.0 | 0.00 | 0.00 | 0.00 | 45 | 1010.7 |
| 20260509230212 | 70 | 11 | 2.0 | 8.0 | 0.00 | 0.00 | 0.00 | 46 | 1010.7 |
| 20260509225503 | 70 | 6 | 3.0 | 9.0 | 0.00 | 0.00 | 0.00 | 44 | 1010.7 |
| 20260509225213 | 70 | 15 | 4.0 | 11.0 | 0.00 | 0.00 | 0.00 | 44 | 1010.5 |
| 20260509224713 | 70 | 20 | 3.0 | 11.0 | 0.00 | 0.00 | 0.00 | 45 | 1010.6 |
| 20260509224212 | 70 | 22 | 3.0 | 6.0 | 0.00 | 0.00 | 0.00 | 44 | 1010.5 |
| 20260509223503 | 71 | 29 | 3.0 | 12.0 | 0.00 | 0.00 | 0.00 | 43 | 1010.5 |
| 20260509223003 | 71 | 13 | 2.0 | 12.0 | 0.00 | 0.00 | 0.00 | 43 | 1010.4 |
| 20260509222503 | 72 | 346 | 3.0 | 9.0 | 0.00 | 0.00 | 0.00 | 44 | 1010.4 |
| 20260509222212 | 72 | 359 | 3.0 | 9.0 | 0.00 | 0.00 | 0.00 | 45 | 1010.3 |
| 20260509221503 | 71 | 357 | 4.0 | 11.0 | 0.00 | 0.00 | 0.00 | 44 | 1010.2 |
| 20260509221003 | 71 | 352 | 3.0 | 11.0 | 0.00 | 0.00 | 0.00 | 43 | 1010.2 |
| 20260509220503 | 71 | 360 | 3.0 | 9.0 | 0.00 | 0.00 | 0.00 | 43 | 1010.1 |
| 20260509220003 | 71 | 18 | 4.0 | 11.0 | 0.00 | 0.00 | 0.00 | 43 | 1010.1 |
| 20260509215503 | 70 | 23 | 4.0 | 11.0 | 0.00 | 0.00 | 0.00 | 42 | 1010.1 |
| 20260509215003 | 71 | 30 | 3.0 | 10.0 | 0.00 | 0.00 | 0.00 | 42 | 1010.1 |
| 20260509214503 | 70 | 38 | 2.0 | 10.0 | 0.00 | 0.00 | 0.00 | 44 | 1010.0 |
| 20260509214003 | 70 | 35 | 3.0 | 10.0 | 0.00 | 0.00 | 0.00 | 42 | 1010.0 |
| 20260509213503 | 71 | 30 | 3.0 | 10.0 | 0.00 | 0.00 | 0.00 | 43 | 1010.0 |
| 20260509213003 | 71 | 9 | 2.0 | 6.0 | 0.00 | 0.00 | 0.00 | 40 | 1010.0 |
| 20260509212503 | 71 | 355 | 3.0 | 11.0 | 0.00 | 0.00 | 0.00 | 41 | 1009.9 |
| 20260509212214 | 71 | 347 | 3.0 | 11.0 | 0.00 | 0.00 | 0.00 | 39 | 1010.0 |
| 20260509211503 | 72 | 329 | 4.0 | 11.0 | 0.00 | 0.00 | 0.00 | 39 | 1009.8 |
| 20260509211003 | 72 | 328 | 3.0 | 10.0 | 0.00 | 0.00 | 0.00 | 41 | 1009.8 |
| 20260509210503 | 71 | 4 | 3.0 | 9.0 | 0.00 | 0.00 | 0.00 | 40 | 1009.7 |
| 20260509210004 | 71 | 4 | 4.0 | 13.0 | 0.00 | 0.00 | 0.00 | 39 | 1009.6 |
| 20260509205503 | 72 | 7 | 5.0 | 13.0 | 0.00 | 0.00 | 0.00 | 38 | 1009.7 |
| 20260509205214 | 72 | 12 | 5.0 | 13.0 | 0.00 | 0.00 | 0.00 | 37 | 1009.6 |
| 20260509204503 | 73 | 2 | 4.0 | 16.0 | 0.00 | 0.00 | 0.00 | 38 | 1009.4 |
| 20260509204214 | 73 | 4 | 4.0 | 16.0 | 0.00 | 0.00 | 0.00 | 38 | 1009.3 |
| 20260509203713 | 73 | 19 | 5.0 | 16.0 | 0.00 | 0.00 | 0.00 | 41 | 1009.2 |
| 20260509203004 | 74 | 32 | 5.0 | 13.0 | 0.00 | 0.00 | 0.00 | 36 | 1009.1 |
| 20260509202503 | 75 | 39 | 6.0 | 16.0 | 0.00 | 0.00 | 0.00 | 34 | 1008.9 |
| 20260509202003 | 76 | 39 | 6.0 | 16.0 | 0.00 | 0.00 | 0.00 | 37 | 1008.7 |
| 20260509201503 | 76 | 35 | 4.0 | 12.0 | 0.00 | 0.00 | 0.00 | 34 | 1008.7 |
| 20260509201003 | 76 | 31 | 5.0 | 16.0 | 0.00 | 0.00 | 0.00 | 34 | 1008.6 |
| 20260509200503 | 75 | 37 | 7.0 | 16.0 | 0.00 | 0.00 | 0.00 | 33 | 1008.4 |
| 20260509200003 | 76 | 39 | 7.0 | 16.0 | 0.00 | 0.00 | 0.00 | 31 | 1008.4 |
| 20260509195503 | 76 | 38 | 6.0 | 17.0 | 0.00 | 0.00 | 0.00 | 36 | 1008.4 |
| 20260509195003 | 76 | 39 | 4.0 | 17.0 | 0.00 | 0.00 | 0.00 | 29 | 1008.3 |
| 20260509194503 | 76 | 46 | 3.0 | 7.0 | 0.00 | 0.00 | 0.00 | 26 | 1008.2 |
| 20260509194003 | 76 | 61 | 3.0 | 12.0 | 0.00 | 0.00 | 0.00 | 27 | 1008.2 |
| 20260509193712 | 76 | 52 | 3.0 | 12.0 | 0.00 | 0.00 | 0.00 | 35 | 1008.1 |
| 20260509193003 | 76 | 8 | 3.0 | 9.0 | 0.00 | 0.00 | 0.00 | 29 | 1008.1 |
| 20260509192503 | 75 | 48 | 3.0 | 8.0 | 0.00 | 0.00 | 0.00 | 28 | 1008.1 |
| 20260509192213 | 75 | 46 | 3.0 | 8.0 | 0.00 | 0.00 | 0.00 | 28 | 1008.2 |
| 20260509191503 | 76 | 17 | 4.0 | 13.0 | 0.00 | 0.00 | 0.00 | 32 | 1008.1 |
| 20260509191003 | 76 | 25 | 4.0 | 14.0 | 0.00 | 0.00 | 0.00 | 28 | 1008.1 |
| 20260509190503 | 77 | 30 | 3.0 | 14.0 | 0.00 | 0.00 | 0.00 | 27 | 1008.1 |
| 20260509190003 | 77 | 24 | 2.0 | 6.0 | 0.00 | 0.00 | 0.00 | 27 | 1008.0 |
| 20260509185503 | 77 | 347 | 3.0 | 7.0 | 0.00 | 0.00 | 0.00 | 27 | 1008.1 |
| 20260509185213 | 77 | 304 | 2.0 | 9.0 | 0.00 | 0.00 | 0.00 | 29 | 1008.1 |
| 20260509184503 | 76 | 289 | 3.0 | 9.0 | 0.00 | 0.00 | 0.00 | 26 | 1008.0 |
| 20260509184003 | 76 | 317 | 4.0 | 10.0 | 0.00 | 0.00 | 0.00 | 30 | 1008.0 |
| 20260509183714 | 76 | 314 | 4.0 | 10.0 | 0.00 | 0.00 | 0.00 | 28 | 1008.1 |
| 20260509183003 | 76 | 323 | 2.0 | 6.0 | 0.00 | 0.00 | 0.00 | 27 | 1008.2 |
| 20260509182503 | 75 | 36 | 2.0 | 7.0 | 0.00 | 0.00 | 0.00 | 30 | 1008.2 |
| 20260509182003 | 75 | 34 | 3.0 | 10.0 | 0.00 | 0.00 | 0.00 | 29 | 1008.2 |
| 20260509181503 | 74 | 9 | 4.0 | 10.0 | 0.00 | 0.00 | 0.00 | 29 | 1008.1 |
| 20260509181003 | 74 | 31 | 4.0 | 12.0 | 0.00 | 0.00 | 0.00 | 29 | 1008.0 |
| 20260509180714 | 74 | 37 | 3.0 | 12.0 | 0.00 | 0.00 | 0.00 | 28 | 1008.0 |
| 20260509180003 | 74 | 3 | 2.0 | 8.0 | 0.00 | 0.00 | 0.00 | 30 | 1007.9 |
| 20260509175504 | 74 | 2 | 2.0 | 9.0 | 0.00 | 0.00 | 0.00 | 29 | 1007.9 |
| 20260509175003 | 75 | 304 | 3.0 | 9.0 | 0.00 | 0.00 | 0.00 | 30 | 1007.9 |
| 20260509174714 | 75 | 274 | 3.0 | 9.0 | 0.00 | 0.00 | 0.00 | 29 | 1008.0 |
| 20260509174003 | 74 | 345 | 4.0 | 11.0 | 0.00 | 0.00 | 0.00 | 29 | 1007.9 |
| 20260509173503 | 74 | 22 | 4.0 | 11.0 | 0.00 | 0.00 | 0.00 | 32 | 1007.9 |
| 20260509173003 | 75 | 336 | 3.0 | 9.0 | 0.00 | 0.00 | 0.00 | 31 | 1007.8 |
| 20260509172503 | 74 | 322 | 2.0 | 9.0 | 0.00 | 0.00 | 0.00 | 33 | 1008.0 |
| 20260509172003 | 74 | 345 | 2.0 | 7.0 | 0.00 | 0.00 | 0.00 | 32 | 1008.1 |
| 20260509171503 | 74 | 355 | 2.0 | 6.0 | 0.00 | 0.00 | 0.00 | 30 | 1008.1 |
| 20260509171003 | 73 | 17 | 2.0 | 8.0 | 0.00 | 0.00 | 0.00 | 31 | 1008.1 |
| 20260509170504 | 73 | 41 | 2.0 | 8.0 | 0.00 | 0.00 | 0.00 | 36 | 1008.1 |
| 20260509170212 | 73 | 46 | 2.0 | 6.0 | 0.00 | 0.00 | 0.00 | 30 | 1008.1 |
| 20260509165503 | 72 | 58 | 3.0 | 10.0 | 0.00 | 0.00 | 0.00 | 31 | 1008.2 |
| 20260509165004 | 72 | 52 | 4.0 | 10.0 | 0.00 | 0.00 | 0.00 | 35 | 1008.1 |
| 20260509164503 | 72 | 33 | 3.0 | 8.0 | 0.00 | 0.00 | 0.00 | 31 | 1008.2 |
| 20260509164003 | 72 | 340 | 3.0 | 8.0 | 0.00 | 0.00 | 0.00 | 33 | 1008.3 |
| 20260509163503 | 72 | 325 | 3.0 | 8.0 | 0.00 | 0.00 | 0.00 | 33 | 1008.2 |
| 20260509163003 | 71 | 315 | 3.0 | 8.0 | 0.00 | 0.00 | 0.00 | 32 | 1008.0 |
| 20260509162503 | 71 | 328 | 2.0 | 7.0 | 0.00 | 0.00 | 0.00 | 35 | 1008.0 |
| 20260509162003 | 71 | 330 | 2.0 | 6.0 | 0.00 | 0.00 | 0.00 | 33 | 1007.9 |
| 20260509161503 | 70 | 9 | 3.0 | 10.0 | 0.00 | 0.00 | 0.00 | 34 | 1008.0 |
| 20260509161003 | 70 | 32 | 3.0 | 10.0 | 0.00 | 0.00 | 0.00 | 35 | 1007.9 |
| 20260509160503 | 69 | 30 | 3.0 | 12.0 | 0.00 | 0.00 | 0.00 | 42 | 1007.9 |
| 20260509160214 | 69 | 38 | 4.0 | 12.0 | 0.00 | 0.00 | 0.00 | 38 | 1008.0 |
| 20260509155503 | 69 | 34 | 3.0 | 11.0 | 0.00 | 0.00 | 0.00 | 36 | 1008.1 |
| 20260509155003 | 69 | 2 | 3.0 | 9.0 | 0.00 | 0.00 | 0.00 | 36 | 1008.2 |
| 20260509154503 | 69 | 327 | 3.0 | 7.0 | 0.00 | 0.00 | 0.00 | 39 | 1008.1 |
| 20260509154003 | 69 | 322 | 2.0 | 7.0 | 0.00 | 0.00 | 0.00 | 37 | 1008.3 |
| 20260509153503 | 68 | 316 | 2.0 | 10.0 | 0.00 | 0.00 | 0.00 | 36 | 1008.3 |
| 20260509153003 | 68 | 325 | 3.0 | 10.0 | 0.00 | 0.00 | 0.00 | 40 | 1008.6 |
| 20260509152503 | 68 | 312 | 3.0 | 12.0 | 0.00 | 0.00 | 0.00 | 39 | 1008.4 |
| 20260509152003 | 68 | 295 | 3.0 | 12.0 | 0.00 | 0.00 | 0.00 | 40 | 1008.4 |
| 20260509151503 | 68 | 286 | 3.0 | 9.0 | 0.00 | 0.00 | 0.00 | 38 | 1008.3 |
| 20260509151214 | 68 | 277 | 3.0 | 9.0 | 0.00 | 0.00 | 0.00 | 39 | 1008.2 |
| 20260509150713 | 68 | 286 | 3.0 | 8.0 | 0.00 | 0.00 | 0.00 | 38 | 1008.1 |
| 20260509150003 | 67 | 256 | 2.0 | 6.0 | 0.00 | 0.00 | 0.00 | 44 | 1007.8 |
| 20260509145503 | 67 | 244 | 2.0 | 7.0 | 0.00 | 0.00 | 0.00 | 39 | 1007.2 |
| 20260509145213 | 66 | 239 | 3.0 | 8.0 | 0.00 | 0.00 | 0.00 | 40 | 1007.2 |
| 20260509144504 | 66 | 240 | 3.0 | 8.0 | 0.00 | 0.00 | 0.00 | 41 | 1007.2 |
| 20260509144214 | 65 | 245 | 2.0 | 7.0 | 0.00 | 0.00 | 0.00 | 44 | 1007.1 |
| 20260509143715 | 65 | 247 | 2.0 | 5.0 | 0.00 | 0.00 | 0.00 | 42 | 1007.2 |
| 20260509143003 | 65 | 235 | 2.0 | 5.0 | 0.00 | 0.00 | 0.00 | 43 | 1007.3 |
| 20260509142712 | 65 | 230 | 2.0 | 5.0 | 0.00 | 0.00 | 0.00 | 44 | 1007.3 |
| 20260509142003 | 64 | 234 | 3.0 | 6.0 | 0.00 | 0.00 | 0.00 | 45 | 1007.3 |
| 20260509141503 | 63 | 219 | 3.0 | 5.0 | 0.00 | 0.00 | 0.00 | 46 | 1007.4 |
| 20260509141003 | 62 | 227 | 2.0 | 5.0 | 0.00 | 0.00 | 0.00 | 48 | 1007.4 |
| 20260509140503 | 61 | 232 | 2.0 | 5.0 | 0.00 | 0.00 | 0.00 | 52 | 1007.3 |
| 20260509140003 | 60 | 242 | 2.0 | 5.0 | 0.00 | 0.00 | 0.00 | 52 | 1007.4 |
| 20260509135503 | 59 | 267 | 2.0 | 4.0 | 0.00 | 0.00 | 0.00 | 59 | 1007.3 |
| 20260509135003 | 59 | 267 | 2.0 | 4.0 | 0.00 | 0.00 | 0.00 | 58 | 1007.3 |
| 20260509134503 | 58 | 269 | 1.0 | 2.0 | 0.00 | 0.00 | 0.00 | 59 | 1007.3 |
| 20260509134003 | 58 | 270 | 1.0 | 2.0 | 0.00 | 0.00 | 0.00 | 58 | 1007.3 |
| 20260509133503 | 58 | 270 | 1.0 | 3.0 | 0.00 | 0.00 | 0.00 | 59 | 1007.2 |
| 20260509133003 | 57 | 271 | 1.0 | 3.0 | 0.00 | 0.00 | 0.00 | 59 | 1007.2 |
| 20260509132503 | 57 | 274 | 1.0 | 2.0 | 0.00 | 0.00 | 0.00 | 59 | 1007.1 |
| 20260509132003 | 56 | 274 | 1.0 | 2.0 | 0.00 | 0.00 | 0.00 | 60 | 1007.2 |
| 20260509131714 | 55 | 274 | 1.0 | 2.0 | 0.00 | 0.00 | 0.00 | 60 | 1007.3 |
| 20260509131004 | 54 | 275 | 1.0 | 3.0 | 0.00 | 0.00 | 0.00 | 61 | 1007.2 |
| 20260509130503 | 54 | 276 | 1.0 | 3.0 | 0.00 | 0.00 | 0.00 | 62 | 1007.3 |
| 20260509130003 | 53 | 279 | 1.0 | 3.0 | 0.00 | 0.00 | 0.00 | 61 | 1007.2 |
| 20260509125503 | 52 | 284 | 1.0 | 4.0 | 0.00 | 0.00 | 0.00 | 63 | 1007.2 |
| 20260509125213 | 52 | 285 | 1.0 | 4.0 | 0.00 | 0.00 | 0.00 | 62 | 1007.2 |
| 20260509124714 | 51 | 286 | 1.0 | 4.0 | 0.00 | 0.00 | 0.00 | 63 | 1007.3 |
| 20260509124004 | 51 | 292 | 1.0 | 4.0 | 0.00 | 0.00 | 0.00 | 65 | 1007.2 |
| 20260509123714 | 50 | 295 | 1.0 | 3.0 | 0.00 | 0.00 | 0.00 | 64 | 1007.2 |
| 20260509123003 | 50 | 295 | 1.0 | 4.0 | 0.00 | 0.00 | 0.00 | 65 | 1007.1 |
| 20260509122503 | 49 | 296 | 1.0 | 4.0 | 0.00 | 0.00 | 0.00 | 67 | 1007.0 |
| 20260509122003 | 49 | 296 | 1.0 | 3.0 | 0.00 | 0.00 | 0.00 | 67 | 1007.0 |
| 20260509121503 | 49 | 296 | 1.0 | 2.0 | 0.00 | 0.00 | 0.00 | 69 | 1007.0 |
| 20260509121003 | 48 | 296 | 1.0 | 2.0 | 0.00 | 0.00 | 0.00 | 69 | 1007.2 |
| 20260509120503 | 48 | 296 | 0.0 | 2.0 | 0.00 | 0.00 | 0.00 | 69 | 1007.0 |
| 20260509120003 | 48 | 296 | 0.0 | 2.0 | 0.00 | 0.00 | 0.00 | 70 | 1007.0 |
| 20260509115503 | 48 | 0 | 0.0 | 1.0 | 0.00 | 0.00 | 0.00 | 71 | 1007.0 |
| 20260509115003 | 47 | 0 | 0.0 | 0.0 | 0.00 | 0.00 | 0.00 | 70 | 1006.9 |
| 20260509114503 | 47 | 0 | 0.0 | 0.0 | 0.00 | 0.00 | 0.00 | 70 | 1006.8 |
| 20260509114005 | 47 | 0 | 0.0 | 0.0 | 0.00 | 0.00 | 0.00 | 69 | 1006.7 |
| 20260509113503 | 47 | 0 | 0.0 | 0.0 | 0.00 | 0.00 | 0.00 | 69 | 1006.7 |
| 20260509113003 | 47 | 297 | 0.0 | 1.0 | 0.00 | 0.00 | 0.00 | 70 | 1006.7 |
| 20260509112503 | 47 | 297 | 0.0 | 1.0 | 0.00 | 0.00 | 0.00 | 69 | 1006.7 |
| 20260509112003 | 47 | 0 | 0.0 | 0.0 | 0.00 | 0.00 | 0.00 | 68 | 1006.6 |
| 20260509111503 | 48 | 0 | 0.0 | 0.0 | 0.00 | 0.00 | 0.00 | 67 | 1006.6 |
| 20260509111003 | 48 | 0 | 0.0 | 0.0 | 0.00 | 0.00 | 0.00 | 68 | 1006.5 |
| 20260509110503 | 48 | 0 | 0.0 | 0.0 | 0.00 | 0.00 | 0.00 | 67 | 1006.5 |
| 20260509110004 | 48 | 0 | 0.0 | 0.0 | 0.00 | 0.00 | 0.00 | 66 | 1006.5 |
| 20260509105503 | 48 | 0 | 0.0 | 1.0 | 0.00 | 0.00 | 0.00 | 66 | 1006.5 |
| 20260509105214 | 48 | 0 | 0.0 | 1.0 | 0.00 | 0.00 | 0.00 | 66 | 1006.5 |
| 20260509104503 | 49 | 297 | 0.0 | 2.0 | 0.00 | 0.00 | 0.00 | 64 | 1006.6 |
| 20260509104003 | 49 | 297 | 1.0 | 2.0 | 0.00 | 0.00 | 0.00 | 65 | 1006.6 |
| 20260509103503 | 49 | 299 | 2.0 | 4.0 | 0.00 | 0.00 | 0.00 | 66 | 1006.6 |
| 20260509103008 | 49 | 304 | 2.0 | 4.0 | 0.00 | 0.00 | 0.00 | 66 | 1006.6 |
| 20260509102503 | 49 | 310 | 1.0 | 4.0 | 0.00 | 0.00 | 0.00 | 66 | 1006.6 |
| 20260509102003 | 49 | 311 | 1.0 | 3.0 | 0.00 | 0.00 | 0.00 | 66 | 1006.6 |
| 20260509101003 | 49 | 314 | 0.0 | 2.0 | 0.00 | 0.00 | 0.00 | 66 | 1006.6 |
| 20260509100503 | 49 | 0 | 0.0 | 0.0 | 0.00 | 0.00 | 0.00 | 65 | 1006.5 |
| 20260509100004 | 49 | 0 | 0.0 | 0.0 | 0.00 | 0.00 | 0.00 | 65 | 1006.6 |
| 20260509095503 | 49 | 0 | 0.0 | 0.0 | 0.00 | 0.00 | 0.00 | 64 | 1006.7 |
| 20260509095214 | 49 | 0 | 0.0 | 0.0 | 0.00 | 0.00 | 0.00 | 65 | 1006.7 |
| 20260509094503 | 49 | 0 | 0.0 | 0.0 | 0.00 | 0.00 | 0.00 | 65 | 1006.7 |
| 20260509094003 | 49 | 0 | 0.0 | 0.0 | 0.00 | 0.00 | 0.00 | 64 | 1006.7 |
| 20260509093505 | 49 | 0 | 0.0 | 0.0 | 0.00 | 0.01 | 0.00 | 64 | 1006.6 |
| 20260509093003 | 50 | 0 | 0.0 | 0.0 | 0.00 | 0.01 | 0.00 | 64 | 1006.7 |
| 20260509092713 | 50 | 0 | 0.0 | 0.0 | 0.00 | 0.01 | 0.00 | 64 | 1006.7 |
| 20260509092003 | 50 | 0 | 0.0 | 0.0 | 0.00 | 0.01 | 0.00 | 64 | 1006.7 |
| 20260509091503 | 50 | 0 | 0.0 | 0.0 | 0.00 | 0.01 | 0.00 | 62 | 1006.7 |
| 20260509091003 | 50 | 0 | 0.0 | 0.0 | 0.00 | 0.01 | 0.00 | 62 | 1006.6 |
| 20260509090504 | 50 | 0 | 0.0 | 0.0 | 0.00 | 0.01 | 0.00 | 61 | 1006.6 |
| 20260509090003 | 50 | 0 | 0.0 | 0.0 | 0.00 | 0.01 | 0.00 | 61 | 1006.6 |
| 20260509085503 | 51 | 0 | 0.0 | 0.0 | 0.00 | 0.01 | 0.00 | 61 | 1006.6 |
| 20260509085003 | 51 | 0 | 0.0 | 0.0 | 0.00 | 0.01 | 0.00 | 61 | 1006.5 |
| 20260509084503 | 51 | 0 | 0.0 | 0.0 | 0.00 | 0.01 | 0.00 | 61 | 1006.5 |
| 20260509084003 | 51 | 0 | 0.0 | 0.0 | 0.00 | 0.01 | 0.00 | 61 | 1006.4 |
| 20260509083503 | 51 | 0 | 0.0 | 0.0 | 0.00 | 0.01 | 0.00 | 59 | 1006.4 |
| 20260509083003 | 52 | 0 | 0.0 | 0.0 | 0.00 | 0.01 | 0.00 | 59 | 1006.4 |
| 20260509082503 | 52 | 0 | 0.0 | 0.0 | 0.00 | 0.01 | 0.00 | 58 | 1006.4 |
| 20260509082003 | 52 | 0 | 0.0 | 0.0 | 0.00 | 0.01 | 0.00 | 57 | 1006.4 |
| 20260509081503 | 52 | 0 | 0.0 | 0.0 | 0.00 | 0.01 | 0.00 | 56 | 1006.5 |
| 20260509081004 | 53 | 0 | 0.0 | 0.0 | 0.00 | 0.01 | 0.00 | 56 | 1006.4 |
| 20260509080503 | 53 | 0 | 0.0 | 0.0 | 0.00 | 0.01 | 0.00 | 55 | 1006.4 |
| 20260509080005 | 54 | 0 | 0.0 | 0.0 | 0.00 | 0.01 | 0.00 | 55 | 1006.4 |
| 20260509075503 | 54 | 0 | 0.0 | 0.0 | 0.00 | 0.01 | 0.00 | 54 | 1006.4 |
| 20260509075003 | 54 | 0 | 0.0 | 0.0 | 0.00 | 0.01 | 0.00 | 54 | 1006.3 |
| 20260509074714 | 54 | 0 | 0.0 | 0.0 | 0.00 | 0.01 | 0.00 | 53 | 1006.4 |
| 20260509074213 | 55 | 0 | 0.0 | 0.0 | 0.00 | 0.01 | 0.00 | 52 | 1006.5 |
| 20260509073503 | 55 | 0 | 0.0 | 0.0 | 0.00 | 0.01 | 0.00 | 51 | 1006.5 |
| 20260509073003 | 56 | 0 | 0.0 | 0.0 | 0.00 | 0.01 | 0.00 | 51 | 1006.6 |
| 20260509072503 | 56 | 0 | 0.0 | 0.0 | 0.00 | 0.01 | 0.00 | 50 | 1006.5 |
| 20260509072003 | 57 | 0 | 0.0 | 0.0 | 0.00 | 0.01 | 0.00 | 48 | 1006.6 |
| 20260509071714 | 57 | 0 | 0.0 | 0.0 | 0.00 | 0.01 | 0.00 | 48 | 1006.6 |
| 20260509071003 | 58 | 0 | 0.0 | 0.0 | 0.00 | 0.01 | 0.00 | 47 | 1006.6 |
| 20260509070503 | 58 | 0 | 0.0 | 0.0 | 0.00 | 0.01 | 0.00 | 46 | 1006.6 |
| 20260509070003 | 58 | 315 | 0.0 | 2.0 | 0.00 | 0.01 | 0.00 | 46 | 1006.6 |
| 20260509065503 | 58 | 315 | 0.0 | 2.0 | 0.00 | 0.01 | 0.00 | 45 | 1006.6 |
| 20260509065003 | 59 | 314 | 0.0 | 1.0 | 0.00 | 0.01 | 0.00 | 45 | 1006.6 |
| 20260509064503 | 59 | 314 | 0.0 | 1.0 | 0.00 | 0.01 | 0.00 | 43 | 1006.6 |
| 20260509064003 | 59 | 316 | 0.0 | 1.0 | 0.00 | 0.01 | 0.00 | 44 | 1006.7 |